Location: Banios
(43.0451°N, 0.2335°E)
Time: 13:38:47
(UTC+00:00)

SL-16 R/B - Pass Details

Date: 25 January 2021
Orbit: 839 x 850 km, 71.0° (Epoch: 26 February)

Event Time Altitude Azimuth Distance (km) Brightness Sun altitude
Rises 05:36:58 0° 199° (SSW) 3,379 5.2 -18.9°
Reaches altitude 10° 05:39:23 10° 199° (SSW) 2,449 4.5 -18.5°
Maximum altitude 05:45:01 81° 113° (ESE) 857 2.3 -17.5°
Drops below altitude 10° 05:50:41 10° 27° (NNE) 2,472 4.8 -16.5°
Sets 05:53:09 0° 26° (NNE) 3,413 5.6 -16.0°
